ONEWEB-0086 (45456 NORAD) Tracking and Keplerian Element Data

This shows tracking and keplerian element data for the satellite.

Feedback or suggestion? Click here.




ElementValue
Catalog45456
NameONEWEB-0086
Epoch Orbit86
Epoch Day87.57669466
Epoch Year2020
RAAN136.8409
Inclination87.3978
Eccentricity0.0021901
Argument of Perigee286.5582
Mean Anonmoly73.3264
Mean Motion15.3425673
Decay Rate1.858E-05
L11 45456U 20020AJ 20087.57669466 .00001858 00000-0 54414-4 0 9998
L22 45456 87.3978 136.8409 0021901 286.5582 73.3264 15.34256730 863

Live tracking and technical data element details for ONEWEB-0086 (NORAD 45456). ONEWEB-0086 can be tracked NOW for your location showing map with azimuth and elevation plus other details from your city location.

Track the satellite on the map from your city or location and see movement details for azimuth, elevation, latitude, longitude, range, height, and movement on the map or in text.







IsCatalogInMostPopularTable: catalog: 45456, numindb: 1
Update: records affected: 1



GetName: 45456 ONEWEB-0086

Hit Count: updated at: Tue, 31 Mar 2020 12:13:09 GMT